Tracking 25620 objects as of 18-May-2022
HD Live streaming from Space Station
objects crossing your sky now

CUTE-LASP

Track CUTE-LASP now!
10-day predictions


NORAD ID: 49263
Int'l Code: 2021-088D
Perigee: 550.5 km
Apogee: 580.1 km
Inclination: 97.6 °
Period: 95.8 minutes
Semi major axis: 6936 km
RCS: Unknown
Launch date: September 27, 2021
Source: United States (US)
Launch site: AIR FORCE WESTERN TEST RANGE (AFWTR)
aabbcc
Your satellite tracking list
Your tracking list is empty




NASA's NSSDC Master Catalog

Two Line Element Set (TLE):
1 49263U 21088D   22138.50306429  .00006803  00000-0  50959-3 0  9996
2 49263  97.5898 207.0259 0021370 159.1657 201.0444 15.02841728 34925
Source of the keplerian elements: AFSPC